Wind_Speed
47 48 49 50 51 52 53 54 54 54 53 53 53 53 53 53 53 53 53 53 54 54 55 55 56 56 56 56 56 56 56 55 55 54 54 54 53 52
49 50 51 53 54 55 55 56 56 56 56 54 55 55 55 55 55 55 55 55 55 56 56 57 57 58 58 58 57 57 56 55 55 54 54 53 53 52
52 52 53 54 54 55 56 57 57 58 58 57 57 57 57 57 57 57 57 57 58 58 59 59 59 59 58 58 57 56 55 55 54 54 53 52 52 52
53 54 54 55 56 57 58 58 59 60 61 59 58 59 59 59 59 59 59 60 60 59 59 59 59 58 57 56 55 55 54 54 53 53 52 52 52 51
55 56 57 58 58 59 60 61 62 62 62 61 60 60 60 61 61 60 60 60 60 60 59 59 57 56 55 55 54 54 53 53 52 52 51 51 51 51
56 57 58 59 60 61 62 62 62 62 62 62 61 61 61 61 61 61 60 60 60 59 58 57 55 54 54 53 53 52 52 51 50 50 50 50 50 50
58 59 60 61 61 62 62 62 62 62 62 61 61 61 61 61 61 60 60 59 58 57 55 54 53 52 52 51 51 51 50 49 49 48 48 48 48 48
59 60 61 61 62 62 62 62 62 62 62 62 61 60 60 59 59 59 58 57 56 54 53 52 51 51 50 50 49 49 48 48 47 47 47 47 47 47
61 61 61 61 62 61 61 61 61 62 62 61 60 59 58 58 58 58 57 56 54 53 51 50 50 49 48 47 47 47 46 46 46 45 45 45 46 46
62 62 62 61 61 61 61 61 61 60 60 60 59 58 57 57 57 56 55 54 52 51 50 48 47 47 46 45 45 44 44 44 43 43 43 43 44 44
62 62 62 62 62 62 62 61 60 59 58 58 57 57 56 56 55 55 54 53 51 49 48 47 45 45 44 43 43 42 42 42 41 41 41 42 42 42
62 62 62 62 62 62 61 60 59 58 58 57 56 56 55 55 54 53 52 51 49 47 46 45 44 43 42 41 41 41 41 41 40 40 40 40 40 41
62 61 61 61 61 60 59 58 58 57 57 56 55 54 53 52 52 51 50 49 48 46 45 44 42 41 40 39 39 39 40 39 38 38 38 38 39 39
61 60 60 59 58 57 56 56 56 55 55 54 53 52 51 50 49 48 47 47 46 44 43 42 40 40 39 38 38 37 37 37 36 36 36 37 37 38
59 59 58 56 55 54 53 53 53 53 52 51 50 49 48 47 45 44 44 44 43 42 41 39 38 38 37 37 36 36 35 35 35 35 36 36 37 37
57 56 54 52 52 51 51 51 51 51 50 49 48 46 44 43 42 42 42 41 40 39 38 37 36 35 35 34 34 34 34 34 34 35 35 36 37 37
54 52 51 50 50 49 49 49 49 49 48 46 44 43 42 41 40 40 39 38 37 35 34 34 33 33 32 32 32 32 32 32 33 33 33 33 34 35
51 49 49 48 48 48 47 47 46 46 44 43 41 40 39 38 37 36 35 34 33 32 31 31 31 30 30 30 31 31 31 31 31 31 31 32 32 33
48 48 47 47 47 46 45 44 42 41 40 39 38 37 35 34 33 32 31 30 30 29 29 29 29 29 29 28 29 30 30 30 30 29 30 30 30 31
46 45 45 44 43 42 41 39 38 37 36 34 33 32 31 30 30 29 29 28 28 27 27 27 27 27 27 26 26 27 28 28 28 28 28 29 28 29
42 42 42 41 40 38 36 36 35 33 32 31 29 29 28 28 27 26 26 26 25 25 25 25 26 26 25 25 25 25 26 27 27 27 27 27 26 26
41 40 39 38 36 34 34 33 32 30 29 28 27 26 26 25 25 24 24 24 24 24 24 24 24 24 24 24 24 24 24 25 25 25 25 25 25 25
39 37 35 34 33 32 31 29 28 27 26 25 24 24 24 24 23 23 22 22 22 22 22 23 23 23 23 23 23 24 24 24 23 23 23 24 25 25
Wind_Direction
285 286 287 287 288 289 290 290 290 290 290 291 291 290 290 290 289 289 288 288 287 286 285 284 282 281 279 278 278 277 275 274 272 271 270 269 268 266
285 286 287 288 288 289 289 290 291 291 291 291 290 290 290 290 290 289 289 288 288 287 286 284 283 281 280 279 278 277 276 274 272 270 269 268 266 263
287 287 288 289 289 290 290 290 291 291 291 291 290 290 289 289 289 289 289 289 288 288 287 285 284 282 280 279 278 277 276 274 272 269 268 267 265 263
287 288 288 289 290 290 291 290 290 290 290 290 290 289 289 289 289 289 289 289 288 288 286 285 284 282 280 279 278 277 275 273 272 269 267 265 263 261
288 288 289 289 290 290 291 291 290 290 290 290 289 288 288 289 289 289 289 289 288 287 286 285 283 281 280 279 278 276 275 273 271 269 267 265 263 261
289 290 290 290 290 291 291 291 290 290 289 289 289 289 289 289 289 289 289 289 289 288 286 284 282 281 280 278 277 276 274 273 271 269 266 264 262 261
290 291 291 291 291 292 291 291 290 290 289 289 289 289 289 289 289 289 289 290 289 287 285 283 282 281 280 278 277 276 274 272 271 269 266 264 262 261
291 291 291 291 292 292 291 291 290 290 289 289 289 289 289 288 289 289 289 289 288 286 284 283 282 281 279 278 276 275 274 272 270 268 266 264 262 260
292 292 291 292 292 291 291 290 290 290 290 289 289 288 288 288 288 289 289 289 288 286 284 283 282 281 278 277 276 274 273 272 270 268 266 264 262 260
292 292 292 292 292 291 291 291 291 290 290 289 289 288 288 288 288 289 288 288 287 286 284 283 282 280 277 276 276 274 273 272 270 268 266 264 261 260
293 293 292 292 292 291 291 291 290 290 289 289 288 288 288 288 288 288 288 288 287 285 283 282 281 279 277 276 276 274 272 271 270 267 265 263 261 260
293 293 292 292 292 292 291 290 290 289 288 288 287 287 287 287 286 286 286 286 286 284 282 282 280 279 276 275 275 273 271 270 269 267 265 263 261 260
294 293 293 292 292 291 290 290 289 289 288 287 287 286 286 285 285 285 285 285 285 284 282 280 280 278 276 274 273 272 271 270 269 266 265 263 262 261
295 294 293 293 292 291 290 290 289 289 289 288 288 287 286 285 284 284 283 283 283 283 282 280 279 278 276 274 273 271 271 270 268 266 265 264 263 262
295 295 294 293 292 291 291 290 290 290 290 289 288 287 286 285 284 283 282 281 281 281 281 280 279 278 276 274 272 271 270 269 267 266 265 264 264 263
295 295 294 294 293 292 291 290 290 290 290 290 288 287 285 284 283 282 281 281 280 280 279 279 278 278 276 274 271 270 269 268 267 267 266 265 264 264
295 295 294 294 293 293 292 291 291 291 290 289 287 286 285 284 283 281 281 280 278 278 276 276 276 276 276 274 272 270 269 270 269 268 267 266 265 265
296 296 296 295 295 294 292 291 291 290 289 288 287 285 284 284 283 281 281 279 277 276 275 274 274 274 274 274 273 271 271 271 271 270 268 267 266 265
297 297 297 297 296 295 294 293 292 291 289 288 286 285 284 283 282 281 279 278 277 275 274 274 273 273 274 273 272 272 272 272 271 270 270 269 268 267
298 298 298 298 297 296 295 293 293 292 292 290 287 285 284 283 282 280 279 278 276 275 274 275 275 274 274 273 272 273 273 273 272 272 271 270 269 267
299 300 300 299 298 296 295 295 294 293 292 290 287 285 284 283 282 280 279 278 276 274 275 275 275 275 275 274 273 274 275 276 276 275 272 270 267 266
301 301 300 300 298 297 296 296 295 293 291 289 287 285 283 282 281 281 279 277 275 274 275 275 275 276 276 274 275 275 276 277 277 276 274 271 269 268
301 301 301 300 299 298 297 296 296 294 292 290 287 285 283 282 281 280 279 276 275 275 275 275 276 276 277 276 276 276 277 277 276 273 273 273 273 272
Height
5699 5696 5693 5691 5688 5685 5682 5679 5677 5675 5674 5670 5665 5661 5657 5654 5651 5648 5644 5641 5638 5635 5632 5629 5627 5625 5623 5622 5621 5620 5619 5619 5620 5620 5621 5622 5623 5625
5686 5684 5681 5678 5675 5672 5668 5665 5661 5659 5658 5656 5651 5646 5642 5639 5636 5633 5629 5626 5622 5619 5616 5613 5611 5609 5607 5605 5604 5603 5603 5602 5603 5603 5604 5605 5607 5608
5673 5671 5668 5664 5661 5658 5654 5650 5646 5643 5641 5640 5636 5631 5627 5624 5620 5617 5613 5610 5606 5603 5599 5596 5594 5591 5589 5588 5587 5586 5585 5585 5585 5586 5587 5588 5590 5592
5660 5657 5653 5650 5646 5642 5639 5635 5631 5627 5624 5622 5620 5615 5611 5607 5604 5600 5597 5593 5590 5586 5582 5579 5576 5574 5572 5571 5570 5569 5568 5568 5568 5569 5570 5572 5573 5575
5645 5642 5638 5634 5631 5627 5623 5619 5615 5611 5606 5604 5602 5598 5594 5590 5586 5583 5580 5576 5572 5568 5565 5562 5559 5557 5555 5554 5553 5552 5552 5552 5552 5552 5553 5555 5556 5558
5630 5626 5622 5618 5614 5610 5606 5602 5597 5593 5589 5586 5583 5580 5577 5572 5568 5565 5562 5558 5555 5551 5547 5544 5542 5540 5538 5537 5536 5536 5535 5535 5535 5536 5537 5539 5540 5542
5615 5610 5606 5601 5597 5592 5588 5584 5579 5575 5571 5567 5565 5562 5559 5554 5551 5547 5544 5541 5537 5534 5531 5528 5526 5524 5522 5520 5519 5519 5519 5519 5520 5520 5521 5523 5525 5527
5598 5594 5589 5584 5579 5574 5570 5565 5561 5557 5553 5549 5546 5543 5540 5536 5532 5529 5526 5523 5521 5518 5514 5512 5509 5508 5506 5505 5504 5503 5503 5503 5504 5505 5506 5507 5509 5511
5581 5577 5572 5567 5562 5557 5553 5548 5544 5539 5535 5531 5528 5525 5522 5519 5515 5512 5509 5506 5504 5501 5498 5497 5494 5493 5491 5489 5489 5488 5488 5488 5489 5490 5491 5492 5494 5496
5564 5559 5554 5550 5544 5539 5535 5531 5527 5522 5517 5513 5510 5507 5503 5500 5497 5494 5491 5489 5488 5485 5482 5481 5480 5478 5476 5475 5474 5474 5474 5474 5474 5475 5476 5477 5479 5481
5547 5541 5536 5531 5526 5521 5517 5513 5509 5505 5499 5495 5492 5489 5486 5483 5479 5477 5475 5472 5471 5470 5467 5465 5465 5463 5462 5461 5460 5460 5460 5460 5460 5461 5462 5463 5465 5467
5530 5524 5518 5513 5508 5502 5498 5494 5491 5487 5482 5479 5475 5472 5469 5466 5463 5460 5458 5456 5455 5455 5453 5451 5450 5448 5449 5448 5447 5446 5446 5446 5447 5448 5449 5450 5451 5453
5512 5507 5501 5495 5490 5484 5479 5475 5472 5468 5465 5461 5459 5456 5453 5450 5447 5445 5442 5441 5439 5439 5438 5437 5436 5435 5434 5435 5435 5433 5433 5433 5434 5434 5435 5437 5438 5440
5493 5488 5483 5478 5472 5467 5463 5458 5454 5450 5447 5444 5442 5439 5437 5434 5432 5429 5428 5426 5425 5424 5423 5422 5422 5422 5421 5421 5422 5421 5421 5421 5422 5422 5423 5424 5426 5427
5475 5470 5466 5460 5456 5451 5446 5442 5438 5434 5431 5428 5425 5423 5421 5418 5416 5415 5413 5412 5411 5410 5409 5409 5409 5409 5408 5409 5409 5409 5409 5410 5410 5411 5412 5413 5413 5415
5458 5454 5449 5444 5439 5435 5431 5427 5422 5418 5415 5413 5410 5408 5406 5404 5403 5401 5400 5399 5398 5398 5397 5396 5396 5396 5396 5396 5397 5397 5397 5398 5399 5399 5400 5401 5401 5402
5443 5439 5434 5429 5425 5421 5416 5412 5408 5404 5401 5398 5396 5394 5392 5391 5390 5388 5387 5386 5386 5386 5385 5385 5385 5385 5385 5385 5386 5386 5386 5387 5387 5388 5389 5390 5390 5390
5427 5423 5419 5414 5410 5406 5402 5398 5395 5391 5387 5385 5383 5381 5380 5378 5377 5376 5376 5375 5375 5374 5374 5374 5374 5375 5375 5375 5375 5375 5376 5376 5377 5377 5377 5378 5379 5379
5413 5409 5404 5400 5396 5392 5388 5384 5381 5378 5375 5372 5370 5369 5368 5367 5366 5366 5365 5365 5364 5364 5364 5364 5364 5365 5366 5366 5366 5365 5366 5366 5366 5367 5367 5367 5368 5368
5400 5395 5391 5387 5383 5379 5375 5372 5369 5366 5364 5362 5360 5359 5358 5357 5356 5356 5355 5355 5355 5355 5355 5355 5355 5355 5356 5357 5357 5356 5355 5355 5356 5357 5357 5357 5357 5358
5388 5384 5379 5375 5371 5368 5364 5361 5359 5356 5354 5352 5351 5350 5349 5348 5347 5347 5346 5346 5346 5346 5347 5347 5346 5346 5347 5347 5348 5348 5347 5346 5346 5346 5346 5347 5347 5348
5377 5373 5369 5364 5361 5357 5355 5352 5349 5347 5345 5343 5342 5341 5340 5339 5339 5339 5338 5338 5338 5338 5339 5339 5338 5338 5338 5339 5339 5339 5339 5338 5337 5336 5336 5337 5337 5338
5366 5362 5358 5355 5351 5348 5345 5343 5341 5339 5337 5335 5334 5333 5333 5332 5331 5331 5331 5331 5331 5331 5331 5331 5331 5331 5330 5331 5331 5331 5330 5330 5329 5329 5329 5328 5328 5328